Theta_e
288 289 287 286 287 286 286 285 285 285 285 285 286 286 287 288 288 288 289 290 290 289 289 289 288 288 288 288 288 289 289 290 290 290 291 292 293 294 295 296 296 296 297 297 297 298 299 300 302 305 308 309 309 308 310 314 319 318 317 317 316 315 314 316 317 317 313 310 311 310 309 311 311 313 314 314 315 316 315 316 316 315 316 317 317
286 286 286 285 284 286 285 284 286 284 285 286 286 286 287 287 287 288 289 289 289 289 289 289 289 288 287 287 288 289 288 288 288 289 290 291 292 293 295 295 296 296 296 296 297 297 297 298 300 302 305 307 306 306 307 305 313 319 318 316 317 315 314 316 316 315 311 309 306 304 304 306 307 311 312 313 314 314 315 315 316 316 315 316 316
283 284 285 283 284 284 283 284 284 284 284 285 285 286 287 287 287 288 289 289 289 289 289 288 288 288 288 288 288 288 289 289 288 289 289 290 291 292 294 295 295 295 295 296 297 297 297 298 299 301 303 304 304 304 304 302 304 313 317 315 313 315 315 316 315 316 311 312 310 306 302 303 303 305 305 309 312 313 314 314 315 316 316 315 316
283 283 283 282 282 282 282 283 283 284 284 284 286 286 287 287 287 288 288 289 289 289 290 289 288 288 288 288 287 286 285 287 287 287 288 289 289 291 291 293 294 294 295 296 297 297 297 297 299 300 301 304 304 303 302 301 301 303 312 316 315 311 312 312 315 316 314 310 303 306 305 306 299 303 306 302 303 310 313 314 314 314 315 314 315
282 283 282 281 281 282 282 283 283 283 284 284 286 286 287 286 287 288 288 288 288 289 288 288 287 287 286 285 285 284 284 284 284 285 287 288 289 289 290 292 292 293 294 296 296 296 297 298 298 299 301 302 304 303 301 301 302 303 305 314 314 312 310 312 313 315 314 314 309 305 300 301 302 304 305 299 301 307 309 313 311 314 314 314 314
283 283 283 282 282 281 282 282 282 282 284 285 285 285 285 287 287 288 288 288 288 288 287 287 286 284 283 282 280 280 280 281 281 282 282 282 284 287 289 290 291 292 294 296 296 296 297 298 298 298 300 301 303 303 302 302 302 301 302 306 316 315 312 311 310 313 314 313 313 312 309 304 303 304 304 298 298 298 301 308 311 314 314 313 315
283 283 282 281 281 281 281 282 282 283 284 285 285 285 286 287 287 287 287 287 287 287 286 286 284 283 282 281 281 280 280 281 282 282 282 283 284 284 286 289 290 291 292 294 295 297 297 297 297 298 299 301 302 302 301 300 301 301 301 302 308 314 313 310 310 311 312 312 311 310 304 305 309 305 302 302 297 298 299 304 308 310 313 313 312
282 282 281 281 281 281 281 282 282 284 284 284 284 285 286 286 286 286 286 286 286 286 285 285 283 282 281 281 281 281 280 280 281 281 282 283 283 284 285 286 287 289 291 293 295 296 297 297 297 297 298 300 301 301 301 301 301 301 301 301 302 311 313 311 311 312 309 309 310 309 305 307 309 309 308 304 302 299 298 297 299 306 309 312 313
281 282 281 280 280 281 282 282 283 283 284 284 284 285 286 286 286 286 285 285 285 285 284 283 283 282 281 280 279 280 280 281 281 282 282 282 282 283 284 285 286 287 289 291 294 296 296 296 296 296 297 299 300 301 301 301 300 299 299 299 300 303 314 313 313 311 311 309 308 307 305 306 308 306 298 299 302 301 300 302 303 302 307 309 312
281 281 280 280 281 282 283 283 283 283 283 285 285 285 285 285 285 285 284 284 284 283 283 282 282 282 280 279 279 278 279 279 279 280 280 281 280 281 281 282 284 286 287 289 291 294 296 296 296 296 296 298 299 300 300 299 299 299 299 299 300 299 306 313 312 313 312 312 310 308 305 305 306 304 300 301 303 305 301 302 303 301 302 304 306
280 281 280 281 282 282 282 282 282 283 282 284 285 284 284 285 285 284 284 284 283 282 282 281 281 281 280 279 278 278 277 277 277 277 279 279 279 279 279 280 282 284 286 287 289 293 295 295 295 295 296 297 298 299 299 299 299 300 300 300 299 299 299 307 311 312 313 312 310 309 307 306 305 304 304 303 302 299 300 302 303 305 306 303 302
280 280 280 281 281 282 282 282 282 282 283 284 283 284 284 284 284 283 283 283 282 282 281 281 280 280 279 279 278 277 277 277 276 276 277 277 278 278 279 279 279 280 282 284 288 292 294 295 295 296 295 296 297 298 299 299 299 300 300 299 299 299 300 300 311 312 312 311 310 309 308 308 308 307 307 306 303 303 304 302 303 304 302 295 294
280 280 280 281 280 281 281 281 281 281 282 283 283 283 284 284 283 282 282 282 281 281 280 280 280 279 279 278 277 278 277 276 276 276 277 277 277 277 277 277 278 279 280 282 286 290 292 294 295 295 294 295 297 298 298 298 299 299 298 298 298 298 299 299 304 312 312 310 310 310 309 308 308 309 309 307 306 306 306 302 303 306 302 296 293
279 280 280 280 280 280 281 281 281 281 282 283 282 283 283 283 282 281 281 281 281 280 280 280 279 279 278 278 277 277 276 276 276 276 276 277 277 276 276 276 276 278 279 281 284 289 291 292 293 295 295 295 296 296 296 297 297 297 298 297 297 298 299 299 300 309 312 312 311 309 309 308 308 308 308 307 306 305 304 303 301 299 302 300 294
279 279 280 280 281 280 280 280 281 281 282 282 282 282 282 282 282 281 280 280 280 280 280 279 279 278 278 278 277 276 276 276 275 276 276 275 276 276 276 276 276 277 278 281 284 287 289 290 291 293 295 295 295 295 295 296 296 297 296 296 297 297 298 298 299 305 311 311 311 310 309 308 308 308 307 307 308 306 306 305 302 297 293 294 296
279 279 280 280 280 280 280 280 281 282 282 281 281 282 282 281 281 280 280 280 279 279 279 278 278 278 278 277 276 276 276 276 275 275 275 275 275 275 275 275 276 277 278 282 285 286 287 289 290 292 293 295 295 294 294 293 293 294 295 295 295 297 297 298 299 302 311 311 311 310 309 308 307 306 307 307 307 307 307 307 305 302 297 292 294
279 279 279 279 279 279 280 280 281 282 281 281 281 281 281 281 280 279 279 279 279 279 278 278 278 277 277 276 276 275 275 274 274 274 274 275 275 275 275 275 276 277 278 281 281 284 287 288 288 290 291 294 293 292 292 292 292 293 293 294 295 297 297 298 299 300 307 311 311 309 309 309 307 307 307 306 306 306 307 307 307 305 303 298 294
279 279 278 279 279 280 280 280 280 281 280 280 281 281 281 280 279 279 279 278 278 278 277 277 277 276 276 276 276 275 275 274 274 274 274 274 274 274 274 274 275 276 277 279 281 283 285 285 286 287 288 291 292 292 292 292 292 292 293 293 295 296 297 298 299 301 305 310 310 309 309 308 307 306 306 305 305 306 306 307 307 307 306 302 299
279 278 278 279 279 279 279 280 280 279 280 280 281 281 280 280 279 279 278 278 278 277 277 277 277 276 276 275 275 275 274 274 274 274 273 273 273 273 273 274 275 275 276 277 278 279 281 283 283 284 286 288 291 292 291 291 291 291 292 293 294 295 297 297 299 301 304 309 309 308 308 308 307 306 305 304 305 305 306 306 306 306 305 305 302
278 278 278 279 279 278 278 278 278 278 279 280 280 280 279 279 279 278 278 278 277 276 276 275 276 276 275 275 275 274 274 274 273 273 272 272 272 273 273 273 274 275 275 276 277 278 279 280 281 283 284 286 289 291 291 291 291 291 291 292 293 294 295 296 298 300 303 309 309 308 307 308 307 306 305 304 304 305 306 306 305 305 305 305 305
278 278 278 278 278 278 278 277 277 277 278 279 279 278 278 278 278 278 277 276 276 276 275 275 275 275 275 274 274 274 273 273 273 273 272 272 272 273 273 273 274 274 275 276 276 277 278 279 280 282 283 285 287 289 291 290 290 290 291 291 292 293 294 295 297 298 302 308 308 308 307 307 307 305 304 304 304 304 305 306 305 305 305 304 305
277 277 277 277 277 278 277 276 277 277 278 278 278 278 278 277 277 277 276 276 275 275 274 274 274 274 274 274 273 273 273 273 272 272 272 272 272 272 272 273 273 274 275 275 275 277 278 279 280 281 282 284 285 288 290 290 290 290 290 291 291 292 293 294 296 297 300 307 307 306 307 307 307 306 305 303 304 304 304 304 304 305 304 303 304
278 277 277 277 277 276 277 276 277 277 278 277 277 277 277 277 276 276 275 275 275 274 274 274 274 273 273 273 273 273 273 272 272 272 272 272 272 272 272 272 272 273 274 275 275 276 277 278 279 279 281 283 285 287 290 290 290 289 289 290 291 291 292 293 295 296 298 305 306 305 306 306 306 305 304 304 303 303 304 304 303 304 303 303 301
277 276 276 277 276 276 276 276 278 278 277 277 277 277 276 276 275 275 274 274 274 274 273 273 273 273 273 273 273 273 272 272 272 272 272 272 272 272 272 272 272 273 273 274 275 275 276 277 278 278 279 281 282 285 288 289 289 289 289 289 290 290 292 293 294 296 298 303 305 305 305 305 305 305 303 302 303 303 303 303 303 303 303 301 300
276 276 276 276 276 275 276 276 277 277 276 276 276 276 275 275 275 274 274 273 273 273 272 272 272 272 272 272 272 272 271 271 271 271 271 272 272 271 272 272 272 272 273 273 273 273 274 274 276 277 278 279 281 283 286 288 289 289 289 289 289 290 291 292 294 295 296 301 305 304 305 305 305 304 302 302 302 301 303 303 303 303 302 301 300
276 275 276 276 276 275 275 275 276 276 276 275 275 275 274 274 273 273 273 272 272 272 272 271 271 271 271 271 271 271 271 271 271 271 271 271 271 271 271 272 272 271 271 272 272 272 273 274 276 277 277 278 279 281 283 286 288 288 288 288 289 289 290 291 293 294 296 299 304 305 304 304 304 304 302 303 302 302 303 303 303 302 301 300 299
276 276 276 275 276 276 276 275 275 275 275 274 274 273 273 273 272 272 272 272 271 271 271 270 270 270 270 270 270 270 270 270 270 270 271 271 271 271 271 270 271 271 271 271 272 272 273 273 274 275 276 277 278 279 281 284 287 288 288 288 288 288 289 291 292 294 296 298 303 305 304 304 304 304 303 302 302 302 303 302 302 302 301 299 298
275 275 276 276 276 276 275 275 275 274 274 274 273 273 272 271 271 271 271 271 271 270 269 269 269 269 269 269 270 270 270 270 270 270 270 270 270 270 270 270 271 270 270 270 270 271 271 272 273 273 275 276 277 278 279 282 286 287 287 287 288 288 289 290 291 293 295 297 300 305 304 304 304 305 304 304 303 303 303 302 303 302 300 298 296
275 275 275 275 275 275 275 274 274 273 273 272 272 271 271 271 270 270 270 270 269 269 268 268 268 268 268 269 269 270 270 270 270 269 269 269 269 269 269 269 269 269 270 270 270 271 271 271 272 273 274 275 276 277 279 280 282 286 287 287 288 288 288 288 289 291 294 296 299 304 304 304 302 300 299 300 301 301 303 300 301 301 298 296 295
274 274 275 275 275 275 274 274 273 272 271 271 271 270 270 269 269 269 269 269 268 267 267 267 267 267 268 269 269 269 269 269 269 269 268 268 268 268 268 268 269 269 270 270 270 270 270 270 270 271 273 275 276 277 279 281 282 282 285 287 287 287 288 288 288 289 291 293 297 304 303 298 297 296 296 297 299 299 299 302 302 299 297 295 295
274 274 274 274 274 274 273 273 272 271 270 270 270 269 269 269 268 268 267 267 267 266 266 266 266 267 268 268 268 268 268 268 268 268 268 267 267 267 267 268 268 268 268 269 269 269 270 271 271 272 273 275 276 277 280 282 283 285 284 285 287 288 288 288 288 288 289 291 294 302 305 299 296 295 296 296 298 298 298 298 298 298 298 296 294
274 274 274 274 273 273 273 272 271 270 270 269 269 268 268 267 267 267 266 266 266 265 265 266 266 267 267 267 268 268 268 267 267 266 266 266 266 266 266 267 267 267 268 268 268 269 269 269 270 270 271 272 274 278 281 282 283 284 285 284 286 287 288 287 287 288 289 291 293 299 304 302 300 299 299 299 298 297 297 297 298 297 297 297 297
273 273 273 273 273 272 272 271 270 270 269 269 268 267 266 267 266 266 266 265 265 265 265 265 266 266 267 267 267 267 266 265 265 265 265 265 265 265 266 266 266 267 267 267 267 268 268 269 269 269 270 272 274 278 280 281 282 284 285 285 286 287 287 287 287 287 288 290 291 295 302 302 302 295 296 300 300 298 296 296 296 296 296 296 297
273 273 273 273 273 272 271 270 269 269 269 269 268 267 266 266 266 265 264 264 264 264 265 265 266 266 266 266 266 265 264 264 264 264 264 264 264 264 265 266 266 266 266 266 267 267 267 268 268 269 270 271 274 278 281 281 282 283 284 285 285 287 287 287 287 287 288 289 290 292 299 301 301 297 299 300 300 298 297 296 296 297 297 295 296
273 272 272 272 271 271 270 269 269 269 268 267 266 266 265 265 264 263 264 263 263 264 264 265 265 265 265 265 264 263 263 263 263 263 263 263 264 264 264 265 265 266 266 266 266 267 267 268 269 269 270 272 275 279 281 281 282 283 284 284 284 286 287 287 287 288 288 289 290 292 297 300 300 298 299 299 299 297 295 293 293 294 295 296 297
273 272 271 271 270 269 269 268 269 268 267 266 265 265 264 263 263 263 263 263 263 263 264 264 264 264 264 263 263 262 262 262 262 262 262 262 263 263 263 264 265 266 266 267 267 267 267 268 269 269 269 269 272 279 281 281 282 283 284 282 284 286 287 287 287 288 288 289 290 292 295 300 300 299 297 297 297 297 294 292 292 293 293 295 296
272 272 271 270 270 269 268 268 267 266 265 265 265 264 263 262 262 262 262 262 263 263 263 263 263 263 262 262 262 261 261 261 261 261 261 262 262 263 264 265 264 265 265 266 267 267 268 268 269 269 269 271 274 278 281 282 282 283 283 282 283 285 286 286 287 288 289 289 290 292 295 301 301 299 296 297 297 296 293 292 292 292 292 293 294
271 271 270 269 268 268 267 266 265 265 265 264 263 263 262 261 261 261 261 262 262 262 262 262 262 262 261 261 261 260 260 260 260 260 261 262 263 263 264 265 264 265 265 266 267 267 268 269 269 269 269 270 272 276 280 281 281 282 282 282 283 284 285 286 286 287 288 289 290 290 292 299 301 300 297 297 297 295 293 292 292 292 291 292 292
270 269 268 268 267 266 266 265 264 263 264 263 262 261 261 260 260 260 261 261 261 261 261 260 260 261 260 260 260 260 260 260 260 261 261 262 263 263 264 265 265 266 266 267 267 267 268 268 269 270 273 272 272 275 279 280 282 283 283 282 284 284 284 285 286 286 288 289 290 291 292 295 301 299 297 298 297 295 294 293 293 292 291 291 292
269 267 268 267 266 265 264 263 263 263 263 262 261 261 260 259 260 260 260 260 260 261 260 260 260 260 259 259 259 259 260 260 260 261 262 263 264 264 264 265 266 266 267 267 268 268 268 268 270 271 272 273 275 276 279 281 282 283 284 284 284 284 284 285 286 286 286 288 290 292 294 295 299 298 297 298 297 296 294 293 293 292 292 291 293
268 268 269 265 265 264 263 262 263 262 262 261 261 259 259 259 259 259 259 260 260 260 260 259 259 259 258 259 259 260 260 261 262 262 263 263 264 264 265 266 266 267 268 268 268 268 268 269 270 271 273 274 276 278 279 282 283 284 285 285 284 285 285 285 286 286 287 288 289 292 296 296 298 298 297 297 297 296 296 294 294 294 293 293 293
268 268 266 264 263 262 262 262 262 261 261 260 260 258 258 258 258 258 259 260 260 259 259 258 258 258 258 259 259 260 261 262 263 263 263 264 265 266 267 267 268 268 268 268 269 269 269 270 271 272 274 275 277 279 279 281 283 285 286 287 285 285 286 286 286 286 287 288 290 293 296 296 296 297 297 297 297 297 296 294 295 296 296 294 292
265 264 264 263 261 261 261 261 261 260 260 260 259 257 257 257 257 258 259 259 259 258 258 257 257 257 258 259 259 260 262 263 264 265 264 264 265 265 266 267 268 269 269 270 270 270 270 270 271 273 275 276 278 280 282 281 283 284 286 288 288 287 288 287 286 286 287 289 291 294 295 295 295 296 296 297 297 297 296 295 296 296 295 294 292
264 264 263 260 261 260 260 260 260 260 259 259 258 257 257 256 256 258 258 258 257 257 257 256 257 257 258 259 260 261 263 264 264 264 264 264 264 265 266 266 267 268 269 271 272 272 271 271 272 273 276 279 281 283 284 284 284 285 286 288 289 289 289 287 287 288 289 290 292 294 295 295 295 296 296 297 297 296 296 296 296 296 294 292 291
263 262 261 260 260 259 259 258 259 259 259 258 258 256 256 255 256 257 257 256 256 256 255 256 256 257 258 260 261 262 263 263 263 263 263 263 264 264 264 265 267 268 269 270 273 275 276 276 277 278 280 283 284 284 285 286 287 287 288 289 289 290 291 291 288 288 289 291 292 294 295 295 295 295 296 296 296 296 296 296 295 294 292 292 292
261 260 260 259 258 257 257 257 257 258 258 258 257 257 254 255 256 256 256 256 255 254 255 256 257 258 259 260 261 262 262 262 263 263 263 263 263 263 263 265 266 268 269 269 270 271 273 275 277 279 282 283 284 285 285 286 287 287 288 289 289 290 290 290 289 289 289 291 293 294 295 294 294 294 295 295 295 296 295 294 294 293 292 293 292
259 260 259 257 256 256 256 256 255 257 258 257 256 256 256 256 255 256 255 255 254 254 255 256 257 258 259 260 261 261 261 262 262 262 262 263 262 263 263 264 266 266 267 268 269 271 272 274 275 279 281 284 285 285 286 286 287 287 288 288 288 288 289 289 289 289 289 290 292 294 294 294 294 294 294 294 295 294 294 294 293 293 293 293 292
260 260 258 256 256 256 255 255 256 257 257 256 256 255 255 255 255 255 254 254 254 254 255 256 257 259 259 260 261 261 261 260 261 261 261 261 261 262 262 263 265 266 266 267 268 269 270 272 273 276 281 283 284 285 286 286 287 287 288 288 288 288 289 289 289 290 290 291 292 293 294 294 294 293 294 294 295 294 293 293 293 293 293 292 292
259 258 257 256 255 255 255 255 255 257 256 255 255 255 255 255 255 254 254 253 253 254 255 256 258 259 259 260 260 260 260 260 260 260 261 261 261 262 262 264 266 267 268 268 268 269 271 272 272 275 278 281 284 285 286 288 287 289 288 288 288 289 289 290 290 291 290 291 292 293 293 293 293 292 293 293 294 293 293 292 291 292 293 292 292
258 258 256 255 255 254 254 255 255 256 255 254 254 254 254 255 254 254 253 253 253 254 255 256 257 258 259 260 260 260 260 260 260 259 259 260 263 267 265 264 264 269 272 273 273 270 271 271 271 274 276 277 278 281 285 287 288 289 290 290 290 291 291 291 291 292 292 291 292 292 292 292 292 292 292 292 292 293 292 291 292 292 292 292 292
257 255 255 254 255 254 254 254 255 255 254 253 253 253 253 254 254 254 253 253 253 254 255 256 257 257 259 259 259 259 259 259 259 259 259 259 258 260 266 268 268 269 270 271 272 273 274 275 272 271 274 278 280 281 283 284 286 289 289 290 291 291 292 292 293 291 291 291 291 291 292 292 292 293 292 292 292 292 291 291 291 292 292 292 291
Wind_Speed
0 1 3 4 3 4 4 5 5 6 5 5 6 6 7 9 9 9 9 10 10 11 11 12 13 15 16 17 17 15 13 14 14 14 14 15 18 17 15 13 12 11 10 8 8 8 8 9 11 12 13 12 12 13 14 18 16 15 14 12 17 16 11 9 13 15 13 8 7 7 6 5 8 9 9 8 8 7 5 7 6 5 5 6 6
2 1 4 4 3 4 5 5 5 6 7 6 6 7 7 6 5 7 9 10 10 10 11 12 12 12 15 17 17 16 14 14 15 14 15 15 18 18 14 13 12 12 10 8 8 7 8 9 9 11 12 12 12 13 12 13 19 17 14 16 19 20 15 16 14 12 13 16 13 7 4 4 4 7 8 7 8 7 6 7 8 8 7 6 6
2 2 2 3 4 4 4 4 4 4 5 5 6 7 7 5 5 8 10 11 11 11 11 12 13 15 16 17 15 14 13 14 15 16 18 20 18 17 16 14 14 12 11 9 9 8 8 8 9 9 11 12 12 13 11 14 18 19 18 15 10 12 14 16 18 19 14 13 13 12 7 5 1 3 2 5 8 8 7 8 8 8 9 7 8
1 2 1 3 3 3 4 4 5 5 5 5 7 8 4 5 8 10 11 11 11 11 13 14 15 16 14 12 15 15 18 18 21 19 17 16 16 16 16 14 13 12 11 11 10 9 8 8 8 8 10 11 11 11 10 12 17 18 19 17 20 16 11 10 16 18 15 16 12 13 14 14 9 8 8 2 2 7 8 7 7 8 10 9 7
1 1 2 3 4 4 4 4 4 5 5 6 7 7 4 8 10 11 11 11 12 14 15 14 15 15 14 15 13 14 13 12 12 12 12 13 15 14 14 14 15 14 13 13 11 10 8 8 7 8 9 11 10 10 9 9 13 15 20 19 14 15 14 12 15 17 18 21 17 10 5 7 13 14 11 0 1 7 7 9 8 10 10 11 10
1 0 1 1 2 3 4 4 4 4 5 5 5 4 6 9 10 11 9 10 13 14 14 13 14 14 15 15 17 16 16 15 14 17 18 19 18 18 18 16 17 16 14 12 11 10 10 8 7 7 8 10 9 9 8 8 10 14 15 19 22 21 18 15 14 15 17 19 17 19 20 17 16 11 15 8 0 1 3 6 10 11 11 11 11
0 0 0 2 3 3 4 4 5 5 5 5 4 5 6 9 8 8 9 11 12 12 13 13 14 13 15 14 14 14 16 14 14 13 13 15 14 19 18 16 17 18 17 14 12 12 10 8 7 7 7 8 10 8 9 9 9 11 13 15 20 12 14 17 18 16 13 16 14 10 3 3 15 21 15 10 10 3 3 7 8 9 12 13 12
2 0 1 2 2 3 4 5 4 5 5 4 4 5 7 8 7 8 11 12 11 11 13 13 13 14 16 16 14 14 12 18 18 14 13 14 17 17 14 14 16 18 18 15 13 12 11 9 8 7 6 6 9 8 8 8 9 10 11 14 17 17 12 15 17 17 17 14 16 13 5 6 16 18 21 24 20 15 8 1 1 7 8 12 13
2 0 1 2 4 5 5 4 3 4 4 4 5 6 6 6 7 10 13 12 11 12 13 13 12 13 13 13 16 13 14 14 14 15 14 12 17 15 15 17 15 17 18 17 15 14 12 10 8 7 5 5 7 8 7 7 9 11 11 12 15 17 18 17 17 17 17 18 13 12 8 10 13 11 6 4 11 18 14 15 13 5 8 8 10
1 1 1 3 4 6 6 2 3 4 4 4 5 5 5 6 10 12 13 11 10 12 13 15 14 12 13 14 16 16 14 14 14 16 14 14 14 15 16 16 16 17 17 17 16 16 14 10 8 7 6 5 6 7 7 7 9 10 10 10 15 18 18 14 18 17 18 16 19 16 13 12 14 9 7 13 11 16 17 15 15 16 15 9 6
1 1 2 4 6 8 4 4 4 5 5 5 6 5 5 8 11 14 13 11 10 12 14 15 13 12 12 14 16 17 18 17 18 18 16 16 15 16 15 16 16 17 16 16 15 15 15 11 9 8 7 5 6 7 6 6 8 9 9 10 11 17 17 20 14 20 18 18 20 16 18 19 20 19 18 17 16 12 10 16 15 15 17 14 8
1 1 4 6 8 6 3 5 6 6 6 7 5 5 7 9 12 15 14 12 12 13 14 14 13 12 12 13 15 15 16 16 18 20 19 18 16 16 14 15 17 17 18 18 16 16 14 11 9 8 7 6 6 6 6 6 6 8 9 8 9 12 15 19 17 15 19 16 19 15 14 14 17 18 18 17 15 15 15 15 14 10 6 3 2
1 3 5 7 4 6 6 5 5 5 6 7 7 6 8 10 13 14 15 13 14 14 14 15 14 13 12 13 14 13 14 16 16 18 17 16 15 15 16 16 16 17 17 17 17 17 14 14 12 10 8 7 7 5 6 6 5 7 9 11 11 12 12 15 18 18 21 17 18 15 15 15 14 13 14 16 14 13 15 16 13 17 16 7 2
4 5 6 3 5 5 4 4 4 5 6 7 6 7 9 11 13 13 15 14 13 14 15 15 15 13 12 12 13 13 14 14 14 15 15 14 13 15 16 16 16 17 19 19 18 16 13 14 15 15 11 7 6 6 5 6 5 6 8 11 12 11 11 15 18 21 19 22 18 17 16 13 14 13 15 14 15 15 15 18 15 6 12 14 6
5 4 2 5 5 4 4 4 5 5 7 6 5 7 10 12 13 14 16 16 15 16 14 16 16 14 12 12 12 12 13 13 12 12 14 15 13 14 15 15 16 16 18 18 19 17 15 14 15 17 16 10 7 6 6 5 5 6 7 10 10 10 11 13 16 21 20 22 20 18 17 15 13 12 13 15 15 17 18 17 17 16 6 6 9
2 2 5 5 4 4 4 5 5 6 6 5 6 8 11 13 13 14 14 15 15 14 14 15 16 15 14 14 14 13 11 12 12 12 12 12 15 13 16 16 16 16 17 18 16 14 16 14 14 15 17 14 9 7 6 6 5 5 6 8 11 8 11 13 16 19 19 21 20 19 16 16 14 14 15 16 15 15 15 17 19 21 19 10 5
3 4 4 4 4 4 4 4 5 6 6 5 6 9 11 13 13 15 16 16 15 13 14 14 15 15 15 14 14 14 14 14 13 14 13 13 12 12 13 13 15 13 16 17 17 16 15 13 14 15 17 15 11 8 7 6 5 5 5 8 11 10 11 13 13 15 18 20 19 20 18 16 14 15 14 14 14 13 14 17 18 21 21 20 14
2 2 3 4 4 4 4 4 5 6 5 6 10 10 10 10 10 13 15 17 16 15 17 16 16 15 15 16 15 15 13 13 12 14 14 13 13 12 13 14 14 13 17 17 15 17 14 15 12 14 15 15 12 10 8 7 6 5 6 7 9 11 12 12 12 13 17 17 18 18 17 17 15 14 15 16 15 15 15 16 16 17 19 21 18
1 3 4 4 4 5 5 6 5 4 4 7 9 11 11 10 11 11 14 14 14 13 15 16 15 13 12 14 15 15 13 13 13 13 13 14 14 14 13 14 14 14 15 12 16 15 14 14 12 13 13 16 14 12 10 8 7 6 6 7 8 10 12 13 12 12 14 17 19 20 17 16 14 14 14 14 15 15 15 15 15 13 15 20 17
3 3 3 4 5 5 5 6 5 5 6 8 9 10 11 11 12 13 13 14 15 15 14 15 14 14 16 15 15 14 13 12 13 13 14 13 14 13 14 15 15 14 13 14 14 15 14 15 15 13 13 14 14 13 11 9 8 7 7 7 7 10 13 13 12 11 13 15 20 21 20 18 17 15 14 14 16 16 17 16 14 14 15 16 18
1 3 4 5 5 5 5 5 4 4 5 7 8 10 10 11 12 12 14 16 17 16 14 14 14 15 16 17 17 15 16 14 14 13 13 14 14 13 14 12 14 15 12 15 14 14 17 16 13 13 11 13 14 15 12 10 8 8 7 7 8 10 12 12 10 12 14 16 16 21 21 19 17 16 14 14 15 16 15 15 15 15 14 12 15
2 4 4 4 5 5 5 4 3 5 8 9 9 9 10 11 12 13 13 13 14 16 15 16 15 15 16 16 17 16 15 14 14 14 14 14 13 12 13 14 14 14 12 12 15 14 14 12 14 12 14 13 14 15 14 10 9 8 8 7 7 9 12 12 10 12 14 14 17 17 20 19 18 18 16 16 16 16 16 15 14 15 14 14 14
3 3 4 4 5 4 4 4 5 7 9 9 9 10 10 11 13 13 14 15 14 15 14 14 15 16 16 16 16 15 15 16 16 13 12 13 12 13 11 13 14 13 14 13 13 14 14 15 12 13 14 13 14 13 13 10 9 9 9 8 7 9 11 12 11 12 14 14 15 17 18 18 17 18 17 17 16 17 16 17 17 15 15 14 12
2 3 3 5 4 3 3 5 7 9 9 10 9 10 11 11 12 13 15 16 15 14 15 16 16 17 17 16 16 16 17 16 16 15 16 16 15 14 13 12 14 10 15 12 13 12 14 15 14 14 12 14 14 14 13 12 11 9 9 9 8 9 10 11 11 12 13 15 15 18 18 18 19 19 19 17 16 17 17 17 18 15 16 16 14
3 3 4 4 3 4 4 5 8 9 9 10 10 11 12 13 13 14 15 15 14 14 15 16 17 19 19 18 19 18 18 18 17 16 18 17 16 13 11 12 10 12 12 13 12 13 14 18 16 13 13 13 13 16 15 13 10 9 9 9 9 9 9 11 11 12 13 15 14 16 20 21 20 21 18 18 17 20 18 18 18 16 16 16 13
3 3 3 5 4 4 5 5 7 9 9 10 11 12 12 13 14 13 14 16 16 15 15 16 17 19 19 20 20 20 20 19 19 18 18 20 17 18 16 12 12 12 13 13 13 14 10 15 13 14 13 13 14 13 15 14 14 11 9 8 8 9 9 10 11 11 12 14 14 17 18 19 21 22 20 19 20 22 19 18 19 17 15 14 16
2 3 3 3 5 6 5 6 7 9 9 10 11 13 13 13 15 15 14 15 15 15 16 17 18 19 19 19 19 19 19 17 17 17 19 16 18 17 17 18 16 15 15 13 12 13 11 13 14 14 13 14 17 14 14 13 15 12 10 9 9 9 9 9 11 11 11 13 14 13 16 20 19 21 22 21 21 21 18 20 19 19 17 17 16
2 4 6 7 7 8 9 8 9 9 10 10 10 11 12 13 15 15 16 15 14 16 17 18 17 18 19 20 19 16 17 21 18 17 16 17 16 16 19 17 17 19 18 19 19 20 18 13 13 15 15 14 13 15 14 16 13 11 10 9 9 8 9 9 10 11 11 11 14 13 15 17 21 19 21 21 21 20 18 18 16 16 17 18 16
3 4 5 7 9 10 11 10 10 10 12 12 12 12 12 13 13 14 14 15 15 16 18 19 20 18 19 18 18 19 20 18 19 18 18 16 17 19 18 19 19 19 18 17 16 18 21 21 17 14 14 14 13 12 10 12 12 14 10 10 10 9 9 10 11 12 11 11 13 16 14 19 21 23 26 24 23 22 18 17 16 17 18 18 17
2 4 5 6 8 9 9 10 11 12 13 14 13 14 14 15 15 15 15 16 15 17 18 18 18 19 18 19 20 18 18 23 18 21 17 17 20 19 16 18 17 17 15 14 17 19 20 21 21 18 13 11 12 9 15 25 21 16 13 11 10 9 9 9 9 11 12 12 14 18 18 23 24 25 26 27 28 26 25 21 18 17 18 18 18
3 5 6 7 8 8 9 10 11 12 12 12 13 13 14 15 14 15 16 16 15 17 18 18 19 18 18 19 17 20 22 19 20 17 19 18 18 14 15 15 16 15 17 16 19 19 18 17 18 18 18 14 11 11 21 22 24 25 18 14 12 10 9 9 8 9 11 12 14 16 19 23 23 23 23 28 28 28 27 27 28 26 23 22 20
4 5 5 7 8 9 10 10 11 11 12 12 14 14 14 15 15 15 16 16 16 16 17 19 19 20 20 19 19 18 17 18 16 15 14 15 13 15 12 16 14 16 15 16 18 19 18 18 17 18 19 18 16 19 24 24 25 26 23 16 12 12 11 9 9 9 9 10 13 15 15 17 18 19 18 21 25 28 28 28 29 30 29 30 30
3 4 6 6 7 8 8 10 9 11 12 12 12 14 15 14 16 16 16 17 18 17 17 19 19 18 20 19 18 18 19 17 17 16 16 12 14 15 15 14 15 15 17 18 18 18 18 16 17 19 19 18 17 23 26 26 24 24 25 22 13 13 12 10 9 9 10 11 11 14 13 15 18 26 20 19 19 21 24 28 28 28 28 28 28
2 3 4 5 6 7 7 7 9 10 11 11 10 11 13 13 14 15 15 16 17 19 17 19 19 19 18 17 18 20 17 17 18 15 17 13 15 15 16 16 15 16 16 16 16 18 19 19 18 18 18 18 19 20 24 24 23 24 25 22 14 14 12 11 10 10 10 11 11 13 12 14 15 18 18 19 19 18 17 18 19 19 19 23 26
1 4 4 5 6 8 9 9 9 10 10 11 12 10 13 14 14 16 15 16 17 18 18 18 19 18 17 17 18 18 18 18 16 18 18 17 18 17 17 16 15 15 15 14 13 15 16 15 16 15 16 18 16 23 25 25 25 25 26 22 15 13 12 11 10 9 11 12 12 13 14 14 18 18 17 20 19 18 17 16 17 17 18 19 18
1 2 4 4 7 8 9 9 8 9 10 9 11 12 14 15 14 14 15 15 16 17 18 18 18 18 19 18 18 20 19 19 20 21 21 21 19 18 18 17 16 16 15 14 14 14 16 16 16 17 17 18 19 26 26 26 25 24 25 15 14 13 12 11 10 10 11 11 11 12 14 13 17 20 23 28 24 19 18 19 19 17 15 16 17
1 1 3 3 4 5 6 8 10 10 11 12 12 13 14 15 15 14 14 15 16 17 18 19 19 19 18 18 20 20 21 20 21 22 22 21 21 20 17 13 15 16 16 16 14 14 14 14 16 16 17 18 17 22 25 25 24 25 20 13 13 12 11 11 11 11 11 11 11 12 13 13 16 19 25 28 27 25 19 21 19 18 16 15 14
1 0 2 3 3 4 6 8 10 10 9 10 12 13 14 14 15 15 15 16 16 17 18 18 18 18 20 21 21 20 22 22 21 21 21 20 18 18 18 14 14 15 15 15 15 13 13 14 16 16 17 17 18 19 24 25 27 27 22 15 12 12 11 11 10 11 10 11 13 19 18 14 16 19 26 29 29 25 21 21 20 19 18 16 14
3 2 3 4 5 7 8 9 8 11 10 11 12 12 13 14 14 15 15 16 16 18 19 20 21 20 20 19 18 19 20 21 21 20 19 19 18 15 16 15 14 14 15 13 13 13 13 13 15 17 23 21 17 19 26 27 27 25 20 14 13 11 12 12 10 11 10 10 12 14 20 18 17 21 30 29 31 26 21 21 21 20 20 20 18
3 2 3 3 5 8 11 12 12 11 10 11 10 10 11 13 14 14 15 16 17 18 19 19 19 20 19 19 17 18 18 17 20 20 18 17 17 16 15 13 13 12 13 12 11 12 14 13 13 14 15 16 17 16 18 26 26 26 27 17 12 12 13 13 11 10 11 10 11 12 14 20 24 27 31 31 30 30 23 21 20 20 22 23 17
3 3 5 5 5 5 7 9 9 10 10 9 9 11 12 13 13 14 15 15 17 18 19 19 19 19 18 18 16 17 22 21 17 17 18 17 15 15 14 13 12 11 11 12 12 12 13 15 14 14 14 15 16 16 17 26 27 27 28 25 13 14 13 11 10 11 11 11 11 11 10 15 23 27 31 33 33 32 27 21 22 22 23 21 20
5 6 5 5 4 4 6 7 8 10 10 9 10 11 12 13 14 15 16 17 17 18 18 18 19 18 18 19 19 19 19 18 18 14 16 14 13 13 14 14 10 9 11 13 12 11 12 13 13 14 14 15 17 23 17 21 27 27 26 29 17 13 13 11 12 11 11 11 12 11 9 13 21 28 32 33 34 32 31 19 23 26 22 22 20
3 4 4 5 5 7 8 8 7 7 8 9 9 11 12 13 14 17 16 17 17 17 18 18 18 19 19 20 19 20 20 16 17 15 16 19 18 18 16 14 15 16 13 13 13 11 11 12 13 13 12 14 15 15 23 20 25 28 29 27 29 19 19 14 13 13 13 12 10 10 9 15 21 26 31 33 33 35 29 23 29 25 24 28 23
5 4 3 2 4 5 7 8 6 6 7 7 9 11 12 14 15 14 16 15 15 15 17 17 17 17 18 18 19 19 17 16 17 19 18 17 19 18 15 15 15 14 14 12 11 9 9 10 12 12 11 11 12 12 15 22 20 26 26 27 27 28 24 15 14 13 12 11 10 10 10 16 21 25 29 31 31 31 24 29 26 25 26 25 16
3 3 1 1 3 5 6 7 7 6 6 6 8 10 13 15 14 14 15 16 17 17 16 16 17 17 17 17 18 17 17 16 17 17 18 18 18 16 15 15 14 14 13 14 13 11 9 9 10 11 11 10 9 9 9 12 19 21 24 26 28 28 26 26 17 13 12 12 13 16 16 19 22 25 29 30 28 31 32 27 26 26 24 15 16
3 1 2 2 3 4 4 7 8 7 7 7 8 9 13 15 14 14 15 15 16 17 17 18 17 16 17 18 19 18 18 17 18 16 16 15 15 16 15 14 13 13 14 15 15 15 14 14 13 13 11 10 9 8 8 9 10 14 17 23 26 26 26 25 23 17 17 19 18 18 19 20 22 22 20 18 17 21 28 27 26 25 15 15 16
1 1 2 3 4 6 7 7 8 7 7 8 8 9 10 12 13 14 15 15 16 16 16 15 16 16 16 16 17 16 17 16 17 17 14 13 15 14 15 15 13 14 14 14 15 15 16 16 17 15 13 10 9 8 8 8 8 8 9 12 16 18 23 23 18 16 16 14 17 17 14 17 16 22 22 22 22 22 21 19 16 16 15 16 16
1 1 2 3 4 6 7 7 8 9 8 9 9 10 10 11 12 13 13 14 14 14 14 15 17 15 14 15 14 20 20 15 16 16 14 15 14 15 15 14 14 15 15 15 16 16 16 16 17 17 14 10 8 8 8 8 8 8 8 9 10 11 11 12 13 13 13 14 13 14 17 14 15 15 16 14 14 13 13 12 13 14 14 15 18
1 1 3 4 4 5 6 7 8 7 8 9 9 10 10 12 13 12 13 14 14 14 13 14 14 14 15 14 13 14 15 16 16 16 14 12 14 16 16 14 15 12 14 14 14 14 15 15 16 15 15 12 9 8 9 8 8 10 9 8 9 10 10 11 15 17 12 12 11 12 11 13 13 14 13 12 12 12 12 13 15 13 13 13 12
2 3 3 4 4 4 5 7 7 7 8 9 10 10 10 10 12 12 13 13 14 13 13 13 13 14 14 14 14 14 15 15 15 16 17 17 20 21 16 15 15 24 29 28 23 15 15 14 14 14 13 12 12 12 19 19 18 19 19 18 16 16 16 14 15 22 15 11 12 11 12 12 13 13 14 14 14 13 14 15 15 18 16 14 14
3 3 4 4 3 4 4 6 7 8 9 9 10 10 10 12 12 12 12 13 13 11 11 11 13 13 15 15 14 15 15 15 15 16 16 16 18 20 23 25 27 28 28 32 30 29 30 29 21 15 18 24 25 26 25 23 19 17 19 19 18 19 20 20 20 17 15 13 12 13 13 13 14 15 15 15 14 14 15 15 15 15 15 17 17
Wind_Direction
227 173 68 51 25 352 1 7 360 344 324 321 344 348 346 336 335 335 333 335 337 333 332 333 332 328 324 320 314 310 311 313 310 310 307 305 300 291 282 275 275 275 273 269 274 285 288 293 298 300 299 298 297 294 297 285 252 220 214 210 183 185 189 187 176 156 146 131 136 118 104 133 148 151 156 156 158 149 157 154 145 142 148 152 152
8 43 9 23 357 356 9 11 351 353 338 342 340 329 325 328 332 325 333 335 333 327 324 326 329 327 321 316 312 310 314 316 313 313 309 303 299 292 283 280 278 274 268 263 268 272 284 290 294 298 298 295 293 292 294 302 285 240 220 203 187 183 184 178 174 158 160 158 154 142 91 84 108 138 146 156 151 156 155 155 151 151 156 153 139
353 289 306 348 350 356 5 351 340 334 322 325 317 325 329 334 333 335 334 335 331 327 327 326 326 325 321 311 311 317 318 318 311 308 306 300 295 295 291 285 281 275 265 265 267 271 270 281 286 289 292 291 291 295 305 307 299 280 227 206 202 193 179 179 172 174 168 166 148 132 149 132 55 99 84 154 158 154 157 159 158 159 156 155 152
316 254 266 307 342 343 357 348 326 326 328 324 335 333 329 334 336 337 336 334 330 329 327 324 323 321 320 326 329 321 314 313 307 302 294 291 295 296 293 289 280 272 270 267 265 263 264 270 280 285 287 287 287 289 295 292 289 293 280 235 189 173 186 181 181 182 164 148 163 179 172 166 155 188 172 179 142 142 153 161 161 161 158 153 153
255 276 302 335 350 329 325 310 313 316 312 325 334 338 339 339 340 338 336 335 333 331 330 330 330 331 330 322 315 309 298 294 296 297 309 312 305 296 295 293 289 282 275 267 258 260 260 260 266 277 282 284 280 280 290 281 286 286 289 265 225 182 176 181 186 188 177 175 160 149 111 165 189 175 155 3 153 141 173 171 167 162 162 159 160
178 220 262 276 296 312 320 301 302 291 313 325 339 339 341 340 338 335 333 332 332 330 333 337 333 330 329 328 325 324 316 317 319 322 321 315 313 310 306 301 295 288 281 270 262 257 255 252 256 268 276 283 277 275 278 287 284 295 284 290 235 197 179 176 181 190 188 189 181 175 173 177 174 148 152 182 338 35 161 181 171 170 167 166 163
331 255 324 337 315 329 299 295 290 313 324 335 353 339 337 335 330 328 329 328 329 329 337 336 330 327 325 319 312 308 307 305 305 305 304 305 303 300 298 299 300 292 281 272 264 255 252 250 251 256 266 274 279 273 283 285 292 286 301 288 285 227 181 177 180 180 188 195 191 191 26 56 151 147 175 142 160 208 180 180 181 182 173 171 169
178 216 282 284 282 256 271 276 291 325 332 352 339 331 333 328 328 329 326 326 328 333 334 336 329 326 323 321 315 311 307 304 305 303 300 300 300 302 304 302 303 302 296 281 266 256 250 247 245 248 254 265 274 273 275 284 286 292 289 291 292 278 215 188 184 179 182 190 190 182 156 121 164 178 170 163 167 171 188 187 62 174 182 177 174
163 228 279 273 272 270 268 277 308 351 350 334 325 327 325 324 326 326 324 326 329 334 333 330 328 323 319 315 313 310 306 302 301 299 299 301 301 311 309 306 302 298 297 298 284 267 253 241 241 247 242 253 263 273 273 280 281 286 290 295 285 280 241 195 187 186 185 181 183 182 150 155 166 175 164 187 158 158 175 170 174 175 178 184 177
235 205 240 268 263 265 254 267 6 353 329 321 321 323 324 326 325 326 323 325 328 331 330 327 324 320 315 313 310 309 311 308 306 303 301 305 304 308 309 307 306 304 302 297 294 282 264 246 238 240 236 237 252 256 270 277 281 274 276 280 293 288 284 228 191 186 188 186 185 175 168 156 159 161 168 166 175 177 166 179 173 166 173 187 179
221 252 271 251 259 255 267 14 1 347 334 329 325 323 320 326 325 324 321 323 328 327 328 322 318 316 313 311 311 311 311 312 311 307 306 304 305 306 309 307 304 301 303 298 292 287 272 249 238 238 231 226 236 252 254 267 274 277 274 278 278 290 288 287 231 190 187 185 188 186 176 171 170 177 179 180 170 175 173 167 169 182 173 156 191
214 246 264 262 257 264 4 18 0 338 335 327 315 318 320 323 325 322 321 325 324 324 320 316 315 313 310 310 311 310 312 312 312 307 309 307 309 308 309 307 307 305 303 304 306 306 295 273 254 247 238 222 230 231 252 252 269 277 279 274 279 281 284 289 261 212 191 186 189 185 189 184 181 180 174 171 171 173 164 166 163 151 104 82 42
198 226 246 249 275 354 9 357 346 339 324 315 311 317 322 323 324 322 317 322 321 321 318 316 315 314 314 313 311 311 311 311 307 306 306 306 310 309 310 307 305 303 301 295 295 302 305 299 285 265 248 226 224 224 241 256 262 276 277 281 277 275 281 279 276 225 190 190 190 187 190 186 188 183 171 172 171 161 158 155 168 163 158 141 125
201 224 240 277 356 358 358 334 329 319 315 312 313 322 323 321 322 319 314 319 319 318 317 316 315 313 313 310 309 310 309 309 307 306 304 303 305 306 306 303 300 298 301 296 295 300 301 302 298 284 267 244 225 224 229 245 257 263 276 279 277 278 277 281 277 251 202 189 185 184 190 190 186 177 172 168 162 160 165 161 151 154 152 154 138
210 235 299 4 348 341 329 319 316 316 314 310 314 319 321 320 321 318 315 318 320 318 318 318 315 313 312 309 308 308 306 305 303 302 303 303 302 299 298 298 296 298 295 295 292 292 300 303 301 295 281 261 240 229 225 234 246 260 269 274 275 274 276 280 278 268 214 191 184 186 185 187 186 177 170 173 171 173 164 160 148 138 117 130 150
236 358 3 353 327 307 311 316 311 314 312 309 317 319 319 317 316 313 312 314 316 315 317 318 315 312 311 311 310 307 302 301 300 298 294 294 296 295 297 296 295 293 294 291 298 305 300 298 300 297 289 271 253 240 228 225 236 253 267 274 276 270 273 271 276 276 237 197 187 182 182 187 183 179 172 176 177 172 164 159 161 152 149 151 141
7 15 355 312 297 289 285 294 310 312 311 309 309 314 314 313 315 314 313 313 312 313 315 317 312 309 310 312 310 308 305 302 298 295 292 290 287 288 289 290 290 289 293 299 300 293 294 298 303 304 301 280 261 254 243 231 226 240 257 274 278 277 268 266 268 270 260 207 188 182 181 184 185 179 175 171 171 169 167 167 168 162 161 155 162
10 339 270 253 254 271 290 304 307 307 307 308 311 312 309 307 308 310 311 313 314 317 319 320 316 312 312 313 313 309 303 298 295 294 296 292 291 289 291 288 287 289 292 293 292 293 299 300 300 304 303 294 276 265 256 245 239 241 250 261 270 275 268 267 263 265 261 226 191 180 182 182 181 184 175 168 170 170 169 173 175 173 164 160 163
288 259 257 264 288 299 306 301 303 306 296 295 305 308 307 308 308 307 307 306 308 315 317 315 314 312 310 310 310 309 304 299 294 289 289 291 290 290 289 288 287 287 288 291 293 297 296 298 301 302 302 299 289 273 262 256 248 250 252 261 267 269 268 267 270 269 265 225 194 180 177 181 179 179 177 170 167 168 171 174 175 169 171 161 162
232 259 277 279 290 288 290 302 306 300 298 303 307 308 307 309 310 311 308 308 310 313 314 310 312 310 308 307 306 303 297 295 293 295 293 287 289 289 289 290 291 290 286 284 287 291 297 300 300 298 295 295 293 280 265 257 252 249 254 266 272 274 274 274 279 278 270 232 193 182 179 180 176 176 174 173 172 173 172 173 172 172 176 167 159
243 266 270 273 277 291 305 300 291 290 296 306 308 306 306 310 310 312 314 313 314 313 313 310 311 308 307 307 307 307 302 297 292 286 285 288 287 288 288 287 292 287 282 285 288 293 294 293 294 295 293 294 293 287 273 259 254 254 256 261 274 278 279 280 282 287 280 233 205 182 179 178 172 172 176 175 173 172 172 173 171 171 169 164 160
222 246 258 281 294 299 305 307 297 306 312 313 309 306 312 313 311 311 311 309 311 313 315 315 313 309 307 307 306 305 301 297 292 288 285 288 286 286 286 288 286 287 290 290 289 287 288 291 294 296 296 292 290 287 276 260 258 260 263 263 274 282 284 286 288 289 284 241 194 188 180 175 174 175 174 174 173 172 171 170 172 169 169 169 169
240 263 282 282 277 283 288 287 303 312 312 313 313 315 313 313 313 312 312 310 312 309 311 312 310 309 306 307 307 304 302 298 295 292 290 290 291 290 286 287 289 289 287 284 289 290 292 293 291 291 294 292 290 288 281 270 265 266 270 275 277 282 286 288 290 288 286 257 206 183 182 177 174 175 175 175 172 173 173 172 173 172 166 165 162
264 271 270 264 266 304 324 322 321 322 322 318 315 314 314 312 313 314 313 314 314 315 315 314 312 309 309 309 309 308 303 301 301 303 301 300 297 293 290 286 286 287 290 291 291 294 296 295 292 291 290 293 295 292 287 275 268 267 275 281 284 286 286 288 287 288 287 263 219 188 182 179 173 177 175 173 174 176 175 175 172 171 164 163 160
256 257 259 273 331 339 319 320 323 320 318 318 319 318 316 316 318 318 314 314 316 317 316 315 315 313 313 313 312 311 307 305 305 304 304 303 299 293 289 284 285 286 290 294 294 292 290 291 288 288 289 290 293 296 294 287 275 273 275 282 284 286 287 286 286 284 283 274 222 196 181 178 178 175 175 173 176 178 178 174 173 171 167 162 160
241 268 313 345 343 325 321 320 320 322 321 321 319 318 318 317 315 316 315 319 320 320 318 318 318 316 314 313 314 314 310 307 307 307 307 307 302 299 297 294 289 287 285 282 283 286 281 285 286 287 286 288 291 292 290 288 282 278 275 274 279 282 285 286 284 281 278 278 245 194 183 179 177 175 174 177 176 179 177 175 173 170 163 158 156
311 315 310 337 334 324 319 325 326 319 321 320 318 319 320 318 317 320 321 321 320 320 320 318 317 314 312 311 312 311 308 305 307 306 307 304 304 300 298 297 296 293 291 288 286 289 291 290 290 290 288 285 286 286 288 286 283 274 271 274 276 282 283 288 286 279 278 279 260 218 189 179 180 177 174 175 177 177 176 175 173 167 161 158 156
332 340 1 348 327 326 330 330 327 322 317 316 315 315 315 318 320 322 323 323 322 321 320 318 316 312 308 308 307 304 306 309 305 305 303 304 303 303 299 297 297 295 295 294 295 295 293 288 282 282 279 278 279 282 283 283 280 277 273 273 271 275 284 289 292 285 280 276 270 229 194 187 178 184 176 175 174 176 175 172 171 162 159 156 155
332 355 358 339 336 329 327 328 324 322 322 322 321 319 321 322 320 320 320 322 323 320 320 318 314 310 308 308 309 313 308 305 308 303 306 303 304 302 301 297 293 292 290 288 286 286 289 290 286 279 278 273 270 269 272 276 282 280 274 269 272 273 279 287 291 292 289 285 277 239 205 188 184 181 179 174 176 174 171 170 170 165 161 159 156
355 0 344 336 327 322 321 323 324 326 326 325 325 327 327 326 324 324 323 323 327 321 318 315 311 307 307 308 307 305 310 309 304 306 303 305 303 301 297 294 290 286 283 283 286 286 284 283 284 282 270 265 265 264 270 272 270 273 278 278 271 270 270 275 283 291 293 289 283 240 201 195 186 181 178 176 176 174 171 169 168 166 162 160 159
22 355 339 331 320 319 321 323 324 324 324 325 324 326 324 322 324 324 323 324 325 318 314 311 308 308 308 306 308 310 307 307 309 304 304 300 302 296 291 288 285 283 284 285 286 284 282 281 283 285 284 275 262 258 266 269 270 270 269 268 270 269 266 265 272 280 289 291 288 255 200 189 188 181 178 179 174 176 173 169 167 168 168 163 160
5 338 329 321 321 323 324 323 321 322 325 331 330 326 324 323 324 325 322 321 319 315 312 310 309 310 309 310 309 307 307 309 306 304 304 301 296 294 288 289 285 286 285 287 285 284 284 283 282 282 279 276 275 271 269 269 269 268 267 264 259 261 259 260 262 268 277 287 284 273 215 185 187 182 178 178 177 177 175 173 171 170 172 171 167
354 334 320 318 318 316 317 318 320 329 330 330 330 324 325 327 325 324 323 321 318 316 312 310 309 310 309 308 309 311 309 306 307 305 302 296 295 292 291 288 285 285 287 285 284 283 281 280 276 278 277 273 265 261 262 264 264 265 265 265 260 252 250 253 256 259 269 277 281 278 237 187 186 182 176 177 179 178 176 173 171 170 171 174 173
2 313 299 310 309 307 315 322 326 325 326 324 326 323 319 323 320 318 320 316 316 313 312 309 309 308 308 310 313 314 309 308 307 303 305 297 295 291 291 289 287 283 280 278 276 275 277 275 274 272 272 271 270 266 263 262 263 264 266 264 256 252 248 247 252 255 266 272 272 282 253 196 184 182 180 177 176 176 174 170 168 168 171 175 173
325 308 311 304 305 315 326 334 332 327 325 325 325 329 324 322 325 319 318 316 314 311 310 310 310 311 312 315 315 312 308 307 304 303 303 302 303 302 295 292 291 287 284 278 274 277 275 275 274 273 274 274 266 261 261 262 263 263 263 264 255 251 247 248 250 253 259 266 271 276 264 213 183 179 184 179 175 171 170 168 169 172 171 172 174
239 272 296 315 328 330 330 325 322 323 325 330 327 331 328 321 321 316 316 316 312 310 310 312 313 315 316 316 315 313 311 308 307 307 303 297 296 295 293 289 285 281 277 276 271 267 269 267 266 267 267 266 269 266 262 261 261 261 261 258 258 250 246 245 249 252 255 259 267 266 268 227 188 179 183 180 175 169 167 168 171 172 170 173 179
192 254 299 325 329 330 329 324 327 332 333 334 333 331 324 321 322 321 319 315 315 314 316 318 315 315 313 313 315 313 310 308 306 304 303 302 297 294 291 286 281 276 275 273 271 271 268 267 265 265 266 268 264 257 256 257 260 263 262 252 251 251 245 245 246 251 253 258 258 259 261 238 190 182 179 176 171 164 167 170 171 171 171 174 179
136 324 323 326 328 336 338 341 330 331 333 333 334 329 325 322 321 321 320 317 317 316 316 313 310 312 316 318 316 312 308 305 304 301 297 296 296 294 289 280 274 274 273 270 267 264 263 264 262 260 259 261 265 267 265 262 261 260 254 249 242 245 242 243 248 245 251 251 255 253 253 240 199 182 177 174 169 166 169 171 171 170 171 176 178
116 66 353 344 355 354 338 331 330 329 337 337 330 326 323 321 320 320 319 316 317 318 319 317 316 316 313 309 308 306 302 298 291 289 291 292 291 285 283 275 267 262 263 265 263 263 259 260 261 260 262 260 256 256 256 259 258 255 249 241 240 234 240 238 237 244 243 247 252 254 247 238 209 178 174 175 169 169 171 172 172 170 175 180 180
107 94 78 48 14 357 338 335 335 332 334 329 327 324 322 319 318 318 316 316 317 318 317 314 311 310 312 310 306 303 299 296 294 290 286 286 290 286 278 264 264 261 263 256 252 252 258 260 255 257 257 257 257 255 253 255 255 254 249 241 229 232 231 233 230 236 243 243 247 249 242 229 211 179 173 173 173 174 173 174 171 176 179 185 174
77 49 50 35 17 1 320 316 323 327 332 329 329 329 325 322 319 317 316 316 318 316 314 315 313 310 308 307 307 305 305 300 286 282 287 286 287 284 279 272 266 263 251 255 252 250 250 255 255 253 250 252 253 249 247 250 252 250 245 241 227 225 226 226 231 230 234 243 246 242 239 221 203 179 173 173 175 179 177 174 179 184 187 174 160
77 53 46 17 354 328 310 323 332 333 331 329 331 329 324 323 322 318 318 320 320 319 315 314 313 311 310 310 310 309 304 304 304 295 293 285 287 290 294 290 281 262 261 258 254 245 247 256 257 251 248 249 250 249 248 250 251 252 248 236 231 224 219 223 227 233 234 240 238 241 238 212 202 181 176 176 177 179 179 178 190 188 168 148 165
61 40 31 27 343 336 326 326 331 329 331 328 330 327 324 323 319 317 320 321 321 320 318 315 313 313 314 313 313 314 313 313 314 307 309 315 311 308 303 304 302 302 289 281 274 255 247 251 255 254 247 247 248 245 242 242 245 245 245 239 232 228 222 220 224 231 232 235 239 236 228 207 200 189 180 179 178 179 179 189 190 177 157 164 166
76 77 44 27 326 319 320 324 331 328 325 329 331 328 324 321 317 321 323 320 319 318 315 313 314 315 316 319 318 318 318 319 323 324 320 317 315 314 312 312 310 307 310 304 301 275 243 242 249 255 247 241 241 238 238 234 236 238 238 237 233 229 223 219 222 232 233 235 237 229 217 202 198 193 184 180 180 180 186 190 183 170 167 163 156
82 46 17 4 336 328 326 319 326 325 323 335 335 330 324 321 323 326 324 324 322 320 319 317 320 319 322 323 322 324 326 328 329 328 326 323 320 323 319 317 313 314 314 316 318 319 304 285 273 262 263 260 249 246 245 241 234 234 234 234 233 230 227 224 225 232 229 232 231 227 213 198 196 194 187 180 181 185 188 185 175 170 165 158 163
73 32 360 1 340 333 333 322 324 331 335 343 337 335 327 322 324 325 324 323 320 321 323 324 324 325 327 328 328 330 334 335 335 334 331 324 321 324 322 318 326 329 334 332 327 321 316 313 303 291 277 265 261 244 245 243 237 234 231 232 233 233 232 229 228 229 227 227 231 225 207 196 193 193 187 182 182 187 188 179 170 165 162 168 170
66 3 17 354 4 348 339 329 325 335 341 341 335 332 324 321 324 323 324 323 321 322 323 324 327 329 330 334 336 336 336 337 339 339 331 328 326 326 325 326 331 337 335 331 325 327 327 324 320 306 284 275 265 262 255 248 242 238 231 231 233 235 232 230 227 227 226 225 225 218 200 195 187 188 185 182 185 185 182 174 166 165 168 173 176
103 46 45 23 8 347 330 329 331 337 343 339 335 331 329 326 323 325 322 322 323 327 328 327 330 333 334 336 337 337 340 339 344 342 333 336 331 331 331 332 335 337 336 336 335 334 332 328 322 316 302 276 270 268 255 250 249 237 236 228 223 221 220 214 216 214 209 211 211 202 195 189 187 182 186 184 182 174 172 165 168 172 173 177 181
97 52 52 37 6 339 329 329 330 336 339 338 335 330 331 330 329 326 327 327 326 326 328 330 335 339 340 340 340 340 341 340 340 339 333 336 333 334 334 332 336 333 337 339 332 334 332 331 321 318 326 321 296 271 255 249 247 245 244 234 215 217 210 208 206 200 198 200 201 196 189 185 182 181 181 183 175 168 167 167 167 173 174 175 179
103 89 62 43 6 335 328 330 330 341 341 339 333 332 332 329 329 329 330 331 331 330 334 341 342 343 342 343 346 345 346 342 342 340 339 334 339 345 343 341 339 342 348 352 352 346 347 344 333 331 331 329 330 323 331 318 286 275 273 259 241 220 208 204 198 194 186 188 191 188 186 182 180 180 182 179 175 169 168 170 176 174 172 175 176
105 75 42 33 358 344 332 337 339 344 342 337 332 332 333 333 333 331 332 332 331 334 337 341 347 348 344 345 342 345 344 337 342 343 336 339 336 334 343 349 348 349 353 356 356 356 360 2 357 344 337 340 343 349 350 344 329 290 270 269 251 230 215 202 188 183 182 185 185 186 185 183 184 183 182 181 174 173 173 172 173 175 177 177 179